Home   Weather   Des Moines   Past weeks

Flag for USA Past Weather in Des Moines, Iowa, USA — Yesterday and Last 2 Weeks

Now
40 °F

Passing clouds.


Feels Like: 34 °F
Forecast: 24 / 38 °F
Wind: 8 mph from South

Location: Des Moines International Airport

Current Time: Dec 5, 2016 at 8:57:23 pm

Latest Report: Dec 5, 2016 at 7:54 pm


Visibility: 10 mi

Pressure: 29.79 "Hg

Humidity: 83%

Dew Point: 35 °F

Location of Des MoinesLocation

Past Weather in Des Moines — Graph

°F

Des Moines Temperature Yesterday

Maximum temperature yesterday: 39 °F (at 1:54 pm)
Minimum temperature yesterday: 31 °F (at 11:54 pm)
Average temperature yesterday: 35 °F

High & Low Weather Summary for the Past Weeks

 TemperatureHumidityPressure
High60 °F (Nov 26, 2:54 pm)97% (Nov 23, 6:54 am)30.41 "Hg (Nov 23, 6:54 am)
Low27 °F (Nov 21, 6:54 am)36% (Nov 21, 1:54 pm)29.03 "Hg (Nov 28, 1:54 pm)
Average40 °F75%29.96 "Hg
* Reported Nov 20 6:54 pm — Dec 5 6:54 pm, Des Moines, Weather by CustomWeather, © 2016

Note: Actual official high and low records may vary slightly from our data, if they occured in-between our weather recording intervals... More about our weather records

Advertising

Des Moines Weather History for the Previous 24 Hours

Scroll right to see more
 ConditionsComfort  
Time TempWeatherWind HumidityBarometerVisibility
6:54 pm
Mon, Dec 5
41 °FPassing clouds.13 mph76%29.76 "Hg10 mi
5:54 pm43 °FPassing clouds.15 mph74%29.76 "Hg10 mi
4:54 pm44 °FPassing clouds.10 mph71%29.76 "Hg10 mi
3:54 pm47 °FScattered clouds.17 mph61%29.77 "Hg10 mi
2:54 pm49 °FBroken clouds.18 mph59%29.77 "Hg10 mi
1:54 pm49 °FBroken clouds.24 mph57%29.78 "Hg10 mi
12:54 pm50 °FBroken clouds.18 mph59%29.80 "Hg10 mi
11:54 am48 °FPassing clouds.17 mph66%29.83 "Hg10 mi
10:54 am44 °FPassing clouds.17 mph76%29.85 "Hg10 mi
9:54 am39 °FScattered clouds.12 mph86%29.87 "Hg8 mi
8:54 am34 °FPartly sunny.10 mph92%29.87 "Hg8 mi
7:54 am33 °FFog.9 mph96%29.88 "Hg5 mi
6:54 am32 °FIce fog.10 mph96%29.88 "Hg5 mi
5:54 am33 °FFog.13 mph92%29.89 "Hg6 mi
4:54 am32 °FIce fog.9 mph96%29.91 "Hg5 mi
3:58 am32 °FIce fog.8 mph92%29.89 "Hg4 mi
2:54 am31 °FIce fog.7 mph92%29.93 "Hg6 mi
1:54 am31 °FClear.8 mph92%29.93 "Hg7 mi
12:54 am31 °FIce fog.12 mph96%29.93 "Hg5 mi
11:54 pm
Sun, Dec 4
31 °FIce fog.7 mph92%29.94 "Hg5 mi
10:54 pm33 °FFog.5 mph92%29.95 "Hg6 mi
9:54 pm34 °FFog.6 mph92%29.95 "Hg6 mi
8:54 pm34 °FFog.9 mph92%29.93 "Hg6 mi
Weather by CustomWeather, © 2016

See weather overviewHow to use our weather pages